Regional Weather Roundup
Issued by NWS

Home | Current Version | Previous Version | Graphics & Text | Print | Product List | Glossary On
Versions: 1 2 3 4 5 6 7 8 9 10 11 12 13 14 15 16 17 18 19 20 21 22 23 24 25 26 27 28 29 30 31 32 33 34 35 36 37 38 39 40 41 42 43 44 45 46 47 48 49 50
000
ASUS43 KTOP 240259
RWRKS

WEATHER ROUNDUP FOR KANSAS
NATIONAL WEATHER SERVICE GOODLAND KS
1000 PM CDT SUN APR 23 2017

NOTE:  "FAIR" INDICATES FEW OR NO CLOUDS BELOW 12,000 FEET WITH NO
SIGNIFICANT WEATHER AND/OR OBSTRUCTIONS TO VISIBILITY.

KSZ001>006-013>018-027>032-041>047-240400-
NORTHWEST KANSAS

CITY           SKY/WX    TMP DP  RH WIND       PRES   REMARKS
GOODLAND       CLOUDY    56  39  53 S20       29.73F
HILL CITY      CLOUDY    59  35  40 SE13G21   29.83F
RUSSELL        CLOUDY    55  34  45 S15       29.87F
$$

KSZ061>065-074>080-084>089-240400-
SOUTHWEST KANSAS

CITY           SKY/WX    TMP DP  RH WIND       PRES   REMARKS
DODGE CITY     CLEAR     57  33  40 S22G28    29.87F
ELKHART          N/A     59  36  42 S22         N/A
GARDEN CITY    CLEAR     57  31  37 S18G25    29.83S
$$

KSZ066>073-081>083-090>101-240400-
SOUTHEAST KANSAS

CITY           SKY/WX    TMP DP  RH WIND       PRES   REMARKS
CHANUTE        CLOUDY    49  43  80 CALM      30.00R
COFFEYVILLE    CLEAR     53  44  71 SE6       30.01R
HUTCHINSON     CLOUDY    55  38  52 SE13      29.95S
MEDICINE LODGE   N/A     56  36  47 S9        29.95S
PARSONS        CLEAR     49  44  83 CALM      30.01R
WICHITA INTL   MOCLDY    53  40  61 S9        29.97F
WICHITA JABRA  CLOUDY    53  38  56 S8        29.97F
WINFIELD       CLOUDY    56  39  53 SE6       30.00S
$$

KSZ007>012-019>026-033>040-048>060-102>105-240400-
NORTHEAST KANSAS

CITY           SKY/WX    TMP DP  RH WIND       PRES   REMARKS
CONCORDIA      CLEAR     55  36  48 S13       29.91S
EMPORIA        CLEAR     53  41  63 S8        29.99S
LAWRENCE       PTCLDY    52  42  69 CALM      30.00R
MANHATTAN      CLOUDY    54  39  57 SW5       29.96S
OLATHE IND     PTCLDY    55  37  50 S3        30.01R
OLATHE EXE     CLOUDY    55  39  54 S3        30.00R
SALINA         CLOUDY    56  40  55 SE12      29.94S
TOPEKA BILLARD CLOUDY    57  41  55 CALM      29.99R
TOPEKA FORBES  CLOUDY    57  39  51 SE5       29.99R HAZE
$$




USA.gov is the U.S. government's official web portal to all federal, state and local government web resources and services.